Location: Niedergestelen
(46.3129°N, 7.7822°E)
Time: 15:20:20
(UTC+00:00)

H-2A R/B - Pass Details

Date: 01 December 2020
Orbit: 734 x 836 km, 98.2° (Epoch: 28 January)

Event Time Altitude Azimuth Distance (km) Brightness Sun altitude
Exits shadow 17:35:24 34° 85° (E) 1,287 2.6 -18.6°
Maximum altitude 17:36:08 35° 67° (ENE) 1,246 2.5 -18.7°
Drops below altitude 10° 17:40:45 10° 3° (N) 2,325 4.3 -19.5°
Sets 17:43:12 0° 354° (N) 3,240 5.2 -19.9°
